Location: Unspecified
(41.5000°N, 0.0000°E)
Time: 18:11:12
(UTC+00:00)

Courier 1B Rocket - Pass Details

Date: 02 July 2019
Orbit: 920 x 1202 km, 28.3° (Epoch: 22 August)

Event Time Altitude Azimuth Distance (km) Brightness Sun altitude
Rises 22:13:30 0° 206° (SSW) 4,070 - -20.6°
Reaches altitude 10° 22:18:06 10° 182° (S) 3,123 - -21.0°
Maximum altitude 22:21:38 14° 155° (SSE) 2,853 - -21.3°
Drops below altitude 10° 22:25:08 10° 128° (SE) 3,116 - -21.5°
Sets 22:29:42 0° 104° (ESE) 4,052 - -21.9°
